WetterOnline ( http://www.wetteronline.de )

Wetter aktuell Hohenpeißenberg

Aktuelles Wetter: Hohenpeißenberg (986m)

6-stündlich | Neueste Meldungen
Ortszeit Temperatur Wetter
Di, 19.06. 14:00 19.1° C wolkig
Di, 19.06. 8:00 14.3° C bewölkt
Di, 19.06. 2:00 14.9° C bewölkt
Mo, 18.06. 20:00 15.9° C leicht bewölkt
Mo, 18.06. 14:00 16.1° C bewölkt
Mo, 18.06. 8:00 11.8° C bewölkt
Mo, 18.06. 2:00 12.5° C leichter Regen
So, 17.06. 20:00 13.0° C bedeckt
Ortszeit Temperatur Wetter
Di, 19.06. 18:00 19.2° C leicht bewölkt
Di, 19.06. 17:50 19.2° C leicht bewölkt
Di, 19.06. 17:40 19.2° C bedeckt
Di, 19.06. 17:30 18.9° C leicht bewölkt
Di, 19.06. 17:20 18.9° C leicht bewölkt
Di, 19.06. 17:10 18.9° C bedeckt
Di, 19.06. 17:00 18.8° C leicht bewölkt
Di, 19.06. 16:30 20.0° C fast wolkenlos
Di, 19.06. 16:00 20.1° C leicht bewölkt
Di, 19.06. 15:30 19.5° C leicht bewölkt
Di, 19.06. 15:00 19.3° C leicht bewölkt
Ortszeit Relative Feuchte Sichtweite
Di, 19.06. 14:00 59% 50 km
Di, 19.06. 8:00 77% 35 km
Di, 19.06. 2:00 79% 30 km
Mo, 18.06. 20:00 79% 25 km
Mo, 18.06. 14:00 75% 20 km
Mo, 18.06. 8:00 93% 18 km
Mo, 18.06. 2:00 99% <100 m
So, 17.06. 20:00 96% <100 m
Ortszeit Relative Feuchte Sichtweite
Di, 19.06. 18:00 61% 65 km
Di, 19.06. 17:50 61% -
Di, 19.06. 17:40 61% -
Di, 19.06. 17:30 61% 65 km
Di, 19.06. 17:20 61% -
Di, 19.06. 17:10 62% -
Di, 19.06. 17:00 63% 65 km
Di, 19.06. 16:30 57% 60 km
Di, 19.06. 16:00 60% 50 km
Di, 19.06. 15:30 58% 50 km
Di, 19.06. 15:00 58% 50 km
Ortszeit Niederschlagsmenge Niederschlagsart
Di, 19.06. 14:00 0.0 l/m2 in 6 Std. -
Di, 19.06. 8:00 0.0 l/m2 in 12 Std. -
Di, 19.06. 2:00 0.0 l/m2 in 6 Std. -
Mo, 18.06. 20:00 0.0 l/m2 in 12 Std. -
Mo, 18.06. 14:00 0.0 l/m2 in 6 Std. -
Mo, 18.06. 8:00 6 l/m2 in 12 Std. Regen, Nebel
Mo, 18.06. 2:00 6 l/m2 in 6 Std. Regen, Nebel
So, 17.06. 20:00 9 l/m2 in 12 Std. Gewitter, Schauer
Ortszeit Niederschlagsmenge Niederschlagsart
Di, 19.06. 18:00 0.0 l/m2 in 1 Std. -
Di, 19.06. 17:50 keine Meldung -
Di, 19.06. 17:40 keine Meldung -
Di, 19.06. 17:30 0.0 l/m2 in 1 Std. -
Di, 19.06. 17:20 keine Meldung -
Di, 19.06. 17:10 keine Meldung -
Di, 19.06. 17:00 0.0 l/m2 in 1 Std. -
Di, 19.06. 16:30 0.0 l/m2 in 1 Std. -
Di, 19.06. 16:00 0.0 l/m2 in 1 Std. -
Di, 19.06. 15:30 0.0 l/m2 in 1 Std. -
Di, 19.06. 15:00 0.0 l/m2 in 1 Std. -
Ortszeit Stärke Spitze Richtung
km/h Bft. km/h Grad Sektor
Di, 19.06. 14:00 7 2 17 360° N
Di, 19.06. 8:00 4 1 18 280° W
Di, 19.06. 2:00 13 3 17 250° W
Mo, 18.06. 20:00 11 2 18 180° S
Mo, 18.06. 14:00 7 2 18 360° N
Mo, 18.06. 8:00 7 2 22 320° NW
Mo, 18.06. 2:00 11 2 25 240° SW
So, 17.06. 20:00 14 3 29 280° W
Ortszeit Stärke Spitze Richtung
km/h Bft. km/h Grad Sektor
Di, 19.06. 18:00 7 2 14 40° NO
Di, 19.06. 17:50 7 2 - 40° NO
Di, 19.06. 17:40 7 2 - 40° NO
Di, 19.06. 17:30 7 2 15 350° N
Di, 19.06. 17:20 7 2 - 350° N
Di, 19.06. 17:10 7 2 - 20° N
Di, 19.06. 17:00 11 2 14 360° N
Di, 19.06. 16:30 9 2 15 10° N
Di, 19.06. 16:00 9 2 19 360° N
Di, 19.06. 15:30 7 2 19 10° N
Di, 19.06. 15:00 9 2 17 10° N
Ortszeit Untergrenze Bedeckung Gattung
total tief tief mittel hoch
Di, 19.06. 14:00 960 m 5/8 5/8 Cu - -
Di, 19.06. 8:00 690 m 7/8 7/8 Cu - -
Di, 19.06. 2:00 840 m 7/8 7/8 Sc - -
Mo, 18.06. 20:00 690 m 4/8 4/8 Cu - -
Mo, 18.06. 14:00 600 m 7/8 7/8 Cu - -
Mo, 18.06. 8:00 600 m 7/8 7/8 Sc - -
Mo, 18.06. 2:00 <30 m 8/8 8/8 - - -
So, 17.06. 20:00 <30 m 8/8 8/8 - - -
Ortszeit Bedeckungsgrad in Achtel und Wolkenuntergrenze
Di, 19.06. 18:00 4(1290m)
Di, 19.06. 17:50 2(1500m)
Di, 19.06. 17:40 9 9 9
Di, 19.06. 17:30 3(1230m)
Di, 19.06. 17:20 1(1290m) 3(1500m)
Di, 19.06. 17:10 9 9 9
Di, 19.06. 17:00 2(1080m)
Di, 19.06. 16:30 1(1020m)
Di, 19.06. 16:00 2(1020m)
Di, 19.06. 15:30 3(1020m) 3(1500m)
Di, 19.06. 15:00 3(990m) 3(1500m)
Ortszeit Stationsdruck (hPa) Tendenz (hPa in 3 Std.)
Di, 19.06. 14:00 913 - 0,3
Di, 19.06. 8:00 913 + 0,9
Di, 19.06. 2:00 912 + 0,1
Mo, 18.06. 20:00 911 0,0
Mo, 18.06. 14:00 911 + 0,1
Mo, 18.06. 8:00 910 + 0,6
Mo, 18.06. 2:00 910 + 0,5
So, 17.06. 20:00 908 + 0,6
Ortszeit Stationsdruck (hPa) Tendenz (hPa in 3 Std.)
Di, 19.06. 18:00 913 - 0,7
Di, 19.06. 17:50 913 keine Meldung
Di, 19.06. 17:40 913 keine Meldung
Di, 19.06. 17:30 913 - 0,6
Di, 19.06. 17:20 913 keine Meldung
Di, 19.06. 17:10 913 keine Meldung
Di, 19.06. 17:00 913 - 0,6
Di, 19.06. 16:30 913 - 0,5
Di, 19.06. 16:00 913 - 0,3
Di, 19.06. 15:30 913 - 0,1
Di, 19.06. 15:00 913 0,0
Ortszeit Schneehöhe (cm)
Di, 19.06. 14:00 0
Di, 19.06. 8:00 0
Di, 19.06. 2:00 0
Mo, 18.06. 20:00 0
Mo, 18.06. 14:00 0
Mo, 18.06. 8:00 0
Mo, 18.06. 2:00 0
So, 17.06. 20:00 0
Ortszeit Schneehöhe (cm)
Di, 19.06. 18:00 -
Di, 19.06. 17:50 -
Di, 19.06. 17:40 -
Di, 19.06. 17:30 -
Di, 19.06. 17:20 -
Di, 19.06. 17:10 -
Di, 19.06. 17:00 -
Di, 19.06. 16:30 -
Di, 19.06. 16:00 -
Di, 19.06. 15:30 -
Di, 19.06. 15:00 -
Link zu dieser Seite / Seite empfehlen

Das Wetter in ...